Regional Weather Roundup
Issued by NWS

Home | Current Version | Previous Version | Text Only | Print | Product List | Glossary Off
Versions: 1 2 3 4 5 6 7 8 9 10 11 12 13 14 15 16 17 18 19 20 21 22 23 24 25 26 27 28 29 30 31 32 33 34 35 36 37 38 39 40 41 42 43 44 45 46 47 48 49 50

000
ASUS44 KMEG 231610
RWRTN
TENNESSEE HOURLY STATE WEATHER ROUNDUP
NATIONAL WEATHER SERVICE MEMPHIS TN
1100 AM CDT WED AUG 23 2017

TNZ002-004-019-021-049-052-054-088>092-231700-
WEST TENNESSEE

CITY           SKY/WX    TMP DP  RH WIND       PRES   REMARKS
MEMPHIS INTL   MOSUNNY   83  69  62 VRB7      30.05F
NWS MEMPHIS      N/A     81 N/A N/A MISG        N/A
JACKSON        SUNNY     80  66  62 NE9       30.07S
DYERSBURG      MOSUNNY   78  65  63 NE7       30.09R
SOMERVILLE     MOSUNNY   81  68  65 VRB5      30.05F
COVINGTON      PTSUNNY   79  66  65 E7        30.07S
BOLIVAR        CLOUDY    79  68  69 CALM      30.06S
PARIS          MOSUNNY   77  59  53 N8        30.07S
HUNTINGDON     PTSUNNY   77  64  65 CALM      30.07S
LEXINGTON      SUNNY     77  64  65 NE8       30.06S
SELMER         MOSUNNY   79  70  73 N8        30.06S
SAVANNAH       PTSUNNY   81  70  69 N7        30.04S
$$

TNZ008-025-027-028-033-062-065-066-231700-
NORTH MIDDLE TENNESSEE

CITY           SKY/WX    TMP DP  RH WIND       PRES   REMARKS
NASHVILLE      MOSUNNY   81  63  54 NW10      30.05S
PORTLAND       MOSUNNY   75  61  60 NW7       30.05S
CLARKSVILLE    MOSUNNY   78  58  49 N8        30.07R
SMYRNA         MOSUNNY   80  64  58 NW9       30.06R
COOKEVILLE     MOSUNNY   77  64  65 NW7       30.04S
GALLATIN       MOSUNNY   79  61  53 NW7       30.07S
CROSSVILLE     MOSUNNY   75  62  64 N9        30.07S
$$

TNZ061-075-076-078-094-096-097-231700-
SOUTH MIDDLE TENNESSEE

CITY           SKY/WX    TMP DP  RH WIND       PRES   REMARKS
FAYETTEVILLE   PTSUNNY   79  68  69 N6        30.04S
TULLAHOMA        N/A     77  66  69 NW9       30.06S
MCMINNVILLE      N/A     79  70  73 N8        30.05S
COLUMBIA       PTSUNNY   77  66  69 NW5       30.04S
SHELBYVILLE    PTSUNNY   77  66  69 N9        30.05S
$$

TNZ017-018-042-046-047-231700-
NORTHEAST TENNESSEE

CITY           SKY/WX    TMP DP  RH WIND       PRES   REMARKS
TRI CITIES     PTSUNNY   79  67  66 CALM      30.01R
ELIZABETHTON   CLOUDY    75  68  78 S6        30.01S
$$

TNZ012-013-036-069-073-074-231700-
CENTRAL EAST TENNESSEE

CITY           SKY/WX    TMP DP  RH WIND       PRES   REMARKS
KNOXVILLE      PTSUNNY   79  65  62 NW3       29.99S
DOWNTOWN KNOXV PTSUNNY   81  68  65 CALM      29.99S
GATLINBURG     CLOUDY    77  66  69 SW5       30.00S
MORRISTOWN     PTSUNNY   79  64  61 W5        30.00S
JACKSBORO      MOSUNNY   81  64  57 N8        30.05R
$$

TNZ083-085-099-231700-
SOUTHEAST TENNESSEE

CITY           SKY/WX    TMP DP  RH WIND       PRES   REMARKS
CHATTANOOGA    MOSUNNY   83  65  54 NW7       30.00F
DAYTON         SUNNY     84  68  58 N6        30.00S
$$

SKY/WX REPORTED AS FAIR MEANS FEW OR NO CLOUDS BELOW
12 THOUSAND FEET.




USA.gov is the U.S. government's official web portal to all federal, state and local government web resources and services.